Weather History for PANC - November, 2013

Change the Weather History Date:

Thursday, November 21, 2013

  Actual Average Record
Temperature  
Mean Temperature 11 °F 21 °F  
Max Temperature 18 °F 26 °F 50 °F (1949)
Min Temperature 3 °F 15 °F -13 °F (1955)
Degree Days  
Heating Degree Days 54    
Month to date heating degree days 871  
Since 1 July heating degree days 2394  
Cooling Degree Days 0    
Month to date cooling degree days 0  
Year to date cooling degree days 21  
Moisture  
Dew Point -1 °F    
Average Humidity 65    
Maximum Humidity 80    
Minimum Humidity 49    
Precipitation  
Precipitation 0.01 in 0.04 in 0.69 in (1967)
Month to date precipitation 1.51 0.82  
Year to date precipitation 23.94 15.13  
Snow  
Snow 0.00 in 0.50 in 5.20 in (1994)
Month to date snowfall 7.5 8.4  
Since 1 July snowfall 7.5 16.7  
Since 1 September snowfall 7.5 16.7  
Snow Depth 3.00 in    
Sea Level Pressure  
Sea Level Pressure 29.68 in    
Wind  
Wind Speed 16 mph (North)    
Max Wind Speed 22 mph    
Max Gust Speed 28 mph    
Visibility 9 miles    
Events Snow    
T = Trace of Precipitation, MM = Missing Value Source: NWS Daily Summary

Daily Weather History Graph

Daily Weather History Graph

Search for Another Location

Airport or City:

Trip Planner

Search our weather history database for the weather conditions in past years. The results will help you decide how hot, cold, wet, or windy it might be!

Date:

Astronomy

Nov. 21, 2013 Rise Set
Actual Time 9:22 AM AKST 4:08 PM AKST
Civil Twilight 8:28 AM AKST 5:03 PM AKST
Nautical Twilight 7:33 AM AKST 5:58 PM AKST
Astronomical Twilight 6:41 AM AKST 6:49 PM AKST
Moon 8:08 PM AKST (11/21) 12:25 PM AKST (11/21)
Length of Visible Light 8h 34m
Length of Day
6h 46m
Waning Gibbous, 84% of the Moon is Illuminated
Nov 21
Waning Gibbous
Nov 25
Last Quarter
Dec 2
New
Dec 9
First Quarter
Dec 17
Full

Hourly Weather History & Observations

Time (AKST) Temp. Windchill Dew Point Humidity Pressure Visibility Wind Dir Wind Speed Gust Speed Precip Events Conditions
12:53 AM 5.0 °F -13.6 °F -9.9 °F 50% 30.00 in 10.0 mi North 16.1 mph 23.0 mph N/A   Clear
1:53 AM 5.0 °F -13.0 °F -9.9 °F 50% 29.99 in 10.0 mi North 15.0 mph - N/A   Clear
3:53 AM 3.9 °F -15.0 °F -9.9 °F 53% 29.97 in 10.0 mi North 16.1 mph - N/A   Clear
4:53 AM 3.0 °F -16.1 °F -9.0 °F 57% 29.95 in 10.0 mi North 16.1 mph 21.9 mph N/A   Partly Cloudy
5:53 AM 3.0 °F -16.7 °F -9.9 °F 55% 29.93 in 10.0 mi North 17.3 mph 21.9 mph N/A   Clear
6:53 AM 3.0 °F -14.1 °F -9.9 °F 55% 29.91 in 10.0 mi North 12.7 mph 23.0 mph N/A   Scattered Clouds
7:53 AM 3.9 °F -15.0 °F -9.0 °F 55% 29.89 in 10.0 mi North 16.1 mph 23.0 mph N/A   Mostly Cloudy
8:53 AM 5.0 °F -13.0 °F -9.9 °F 50% 29.88 in 10.0 mi North 15.0 mph - N/A   Overcast
9:53 AM 5.0 °F -14.2 °F -9.9 °F 50% 29.86 in 10.0 mi North 17.3 mph 25.3 mph N/A   Overcast
10:53 AM 6.1 °F -13.3 °F -9.0 °F 50% 29.83 in 10.0 mi North 18.4 mph 23.0 mph N/A   Overcast
11:53 AM 8.1 °F -7.7 °F -7.1 °F 50% 29.80 in 10.0 mi North 12.7 mph - N/A   Overcast
12:53 PM 9.0 °F -5.9 °F -6.0 °F 51% 29.77 in 10.0 mi North 11.5 mph - N/A   Overcast
1:53 PM 10.0 °F -7.6 °F -5.1 °F 51% 29.70 in 10.0 mi North 17.3 mph 24.2 mph N/A   Overcast
2:12 PM 10.4 °F -6.6 °F -4.0 °F 52% 29.67 in 10.0 mi North 16.1 mph - 0.00 in Snow Light Snow
2:49 PM 10.4 °F -7.2 °F 1.4 °F 67% 29.63 in 1.5 mi North 17.3 mph 24.2 mph 0.00 in Snow Light Snow
2:53 PM 10.0 °F -6.5 °F 1.9 °F 70% 29.65 in 1.5 mi North 15.0 mph 21.9 mph 0.00 in Snow Light Snow
3:35 PM 10.4 °F -5.4 °F 3.2 °F 73% 29.57 in 5.0 mi North 13.8 mph 19.6 mph 0.01 in Snow Light Snow
3:53 PM 12.0 °F -2.7 °F 5.0 °F 73% 29.58 in 5.0 mi North 12.7 mph - 0.01 in Snow Light Snow
4:53 PM 12.0 °F -6.9 °F 6.1 °F 77% 29.52 in 6.0 mi North 21.9 mph 27.6 mph 0.00 in Snow Light Snow
5:53 PM 12.9 °F -5.7 °F 7.0 °F 77% 29.47 in 10.0 mi North 21.9 mph 28.8 mph 0.00 in   Overcast
6:53 PM 14.0 °F -0.8 °F 8.1 °F 77% 29.42 in 10.0 mi North 13.8 mph 24.2 mph N/A   Overcast
7:53 PM 14.0 °F -1.4 °F 9.0 °F 80% 29.38 in 10.0 mi North 15.0 mph 23.0 mph N/A   Overcast
8:53 PM 15.1 °F -1.1 °F 9.0 °F 77% 29.32 in 10.0 mi North 17.3 mph 25.3 mph N/A   Overcast
9:53 PM 17.1 °F 4.3 °F 10.9 °F 77% 29.30 in 10.0 mi North 11.5 mph - 0.00 in Snow Light Snow
10:53 PM 17.1 °F 3.0 °F 12.0 °F 81% 29.27 in 9.0 mi North 13.8 mph 23.0 mph 0.00 in Snow Light Snow
11:53 PM 17.1 °F 3.6 °F 12.9 °F 84% 29.24 in 10.0 mi North 12.7 mph - 0.00 in Snow Light Snow